Date String (YYYY-MM-DD hh:mm:ss) UTC,Instrument flags,absolute air pressure of the measurement (hPa),sample flow rate (lpm),inlet stack bypass flow (lpm),air temperature of the measurement (°C),ambient temperature measured by the external sensor (°C),aerosol sample conditioner tube jacket temperature (°C),OPC LED temperature (°C),internal box temperature (°C),relative humidity of the measurement (%),span deviation,mass concentration of particles derived from Lorenz-Mie calculation of OPC scattering (μg/m³),mass concentration of particles derived from Lorenz-Mie calculation of OPC scattering (μg/m³),mass concentration of particles derived from Lorenz-Mie calculation of OPC scattering (μg/m³)
DateTimeUTC,F1_M11,P_M11,Q1_M11,Q2_M11,T1_M11,T2_M11,T3_M11,T4_M11,T5_M11,U1_M11,ZSPAN_M11,X0_M11,X2_M11,X1_M11
2023-09-13 11:00:00,SystemResetWarning,0831.1,5.00,000.00,029.2,027.9,000.0,037.5,030.8,24.0,0000.6,0014.99,0005.77,0005.05
2023-09-13 11:01:00,SystemResetWarning,0831.1,5.00,000.00,029.2,027.9,000.0,037.5,030.8,24.0,0000.8,0014.99,0005.82,0005.10
2023-09-13 11:02:00,SystemResetWarning,0831.1,5.00,000.00,029.2,027.9,000.0,037.5,030.9,23.9,0000.8,0014.26,0005.82,0005.12
2023-09-13 11:03:00,SystemResetWarning,0831.2,5.00,000.00,029.2,027.9,000.0,037.5,030.9,23.9,0000.3,0014.23,0005.86,0005.15
2023-09-13 11:04:00,SystemResetWarning,0831.1,5.00,000.00,029.3,027.9,000.0,037.6,030.9,23.9,0000.3,0013.39,0005.92,0005.19
2023-09-13 11:05:00,SystemResetWarning,0831.1,4.99,000.00,029.2,026.7,000.0,037.5,030.6,23.9,0000.0,0012.14,0005.97,0005.25
2023-09-13 11:06:00,SystemResetWarning,0831.1,5.00,000.00,029.1,025.0,000.0,037.4,030.3,24.0,0000.4,0012.08,0006.03,0005.30
2023-09-13 11:07:00,SystemResetWarning,0831.1,5.01,000.00,029.0,024.5,000.0,037.3,030.1,24.0,0000.2,0012.13,0006.08,0005.36
2023-09-13 11:08:00,SystemResetWarning,0831.0,5.01,000.00,028.8,024.7,000.0,037.3,029.9,24.2,0000.4,0011.55,0006.13,0005.40
2023-09-13 11:09:00,SystemResetWarning,0831.0,5.00,000.00,028.7,025.0,000.0,037.3,029.8,24.4,0000.0,0011.42,0006.20,0005.46
2023-09-13 11:10:00,SystemResetWarning,0831.0,4.99,000.00,028.7,025.4,000.0,037.3,029.8,24.5,0000.3,0012.16,0006.24,0005.50
2023-09-13 11:11:00,SystemResetWarning,0831.1,4.99,000.00,028.6,025.8,000.0,037.2,029.9,24.5,0000.4,0012.07,0006.22,0005.51
2023-09-13 11:12:00,SystemResetWarning,0831.1,5.00,000.00,028.6,026.1,000.0,037.2,029.9,24.6,0000.4,0012.25,0006.27,0005.53
2023-09-13 11:13:00,SystemResetWarning,0831.1,5.01,000.00,028.6,026.3,000.0,037.2,030.0,24.6,0000.6,0012.62,0006.32,0005.56
2023-09-13 11:14:00,SystemResetWarning,0831.1,4.99,000.00,028.6,026.5,000.0,037.2,030.0,24.7,0000.9,0012.28,0006.35,0005.59
2023-09-13 11:15:00,SystemResetWarning,0831.1,4.99,000.00,028.6,026.7,000.0,037.2,030.0,24.9,0001.4,0011.99,0006.37,0005.58
2023-09-13 11:16:00,SystemResetWarning,0831.1,5.00,000.00,028.6,026.9,000.0,037.1,030.1,25.0,0001.5,0013.50,0006.37,0005.57
2023-09-13 11:17:00,SystemResetWarning,0831.1,5.01,000.00,028.6,027.0,000.0,037.1,030.1,25.0,0001.0,0013.66,0006.39,0005.57
2023-09-13 11:18:00,SystemResetWarning,0831.2,5.01,000.00,028.6,027.1,000.0,037.1,030.2,25.1,0001.0,0014.01,0006.37,0005.57
2023-09-13 11:19:00,SystemResetWarning,0831.2,5.00,000.00,028.6,027.2,000.0,037.1,030.2,25.1,0001.2,0013.85,0006.33,0005.57
2023-09-13 11:20:00,SystemResetWarning,0831.2,5.00,000.00,028.7,027.2,000.0,037.1,030.3,25.1,0001.0,0013.81,0006.30,0005.56
2023-09-13 11:21:00,SystemResetWarning,0831.2,5.00,000.00,028.7,027.3,000.0,037.1,030.3,25.0,0000.6,0012.98,0006.27,0005.55
2023-09-13 11:22:00,SystemResetWarning,0831.2,4.99,000.00,028.7,027.4,000.0,037.1,030.3,25.0,0000.4,0013.07,0006.29,0005.56
2023-09-13 11:23:00,SystemResetWarning,0831.1,5.00,000.00,028.7,027.4,000.0,037.1,030.4,24.9,0000.5,0013.76,0006.29,0005.56
2023-09-13 11:24:00,SystemResetWarning,0831.1,5.01,000.00,028.7,027.4,000.0,037.1,030.4,24.9,0000.5,0013.68,0006.26,0005.56
2023-09-13 11:25:00,SystemResetWarning,0831.1,5.01,000.00,028.8,027.5,000.0,037.1,030.4,24.9,0000.1,0013.47,0006.24,0005.56
2023-09-13 11:26:00,SystemResetWarning,0831.1,5.01,000.00,028.8,027.5,000.0,037.1,030.5,24.8,-000.5,0013.41,0006.24,0005.59
2023-09-13 11:27:00,SystemResetWarning,0831.2,5.00,000.00,028.8,027.5,000.0,037.1,030.5,24.8,-000.3,0012.07,0006.24,0005.62
2023-09-13 11:28:00,SystemResetWarning,0831.2,4.99,000.00,028.8,027.5,000.0,037.1,030.5,24.8,0000.2,0011.82,0006.25,0005.66
2023-09-13 11:29:00,SystemResetWarning,0831.1,5.00,000.00,028.8,027.6,000.0,037.1,030.5,24.9,-000.0,0011.80,0006.28,0005.68
2023-09-13 11:30:00,SystemResetWarning,0831.1,4.99,000.00,028.9,027.6,000.0,037.1,030.5,25.0,-000.4,0011.92,0006.37,0005.71
2023-09-13 11:31:00,SystemResetWarning,0831.2,4.99,000.00,028.9,027.6,000.0,037.2,030.6,25.0,-000.5,0012.42,0006.41,0005.74
2023-09-13 11:32:00,SystemResetWarning,0831.2,5.00,000.00,028.9,027.6,000.0,037.2,030.6,25.0,-000.3,0012.99,0006.45,0005.79
2023-09-13 11:33:00,SystemResetWarning,0831.2,5.00,000.00,028.9,027.6,000.0,037.2,030.6,25.0,0000.5,0013.51,0006.49,0005.81
2023-09-13 11:34:00,SystemResetWarning,0831.2,5.00,000.00,028.9,027.6,000.0,037.2,030.6,25.1,0000.1,0013.29,0006.49,0005.84
2023-09-13 11:35:00,SystemResetWarning,0831.2,5.01,000.00,028.9,027.6,000.0,037.2,030.6,25.0,0000.2,0013.74,0006.52,0005.85
2023-09-13 11:36:00,SystemResetWarning,0831.2,5.01,000.00,029.0,027.7,000.0,037.2,030.7,25.0,0000.2,0013.82,0006.55,0005.88
2023-09-13 11:37:00,SystemResetWarning,0831.2,5.00,000.00,029.0,027.7,000.0,037.2,030.7,25.0,0000.3,0013.78,0006.52,0005.89
2023-09-13 11:38:00,SystemResetWarning,0831.2,5.00,000.00,029.0,027.7,000.0,037.3,030.7,24.9,-000.1,0013.89,0006.54,0005.91
2023-09-13 11:39:00,SystemResetWarning,0831.2,5.00,000.00,029.0,027.7,000.0,037.3,030.7,24.9,-000.8,0013.76,0006.52,0005.92
2023-09-13 11:40:00,SystemResetWarning,0831.3,5.00,000.00,029.0,027.7,000.0,037.3,030.7,24.9,-000.7,0014.01,0006.55,0005.92
2023-09-13 11:41:00,SystemResetWarning,0831.2,4.99,000.00,029.0,027.7,000.0,037.3,030.7,24.8,-000.0,0013.88,0006.50,0005.92
2023-09-13 11:42:00,SystemResetWarning,0831.2,4.99,000.00,029.0,027.7,000.0,037.3,030.7,24.8,0000.0,0014.41,0006.52,0005.91
2023-09-13 11:43:00,SystemResetWarning,0831.2,5.00,000.00,029.0,027.7,000.0,037.3,030.7,24.7,0000.0,0014.29,0006.53,0005.91
2023-09-13 11:44:00,SystemResetWarning,0831.2,5.00,000.00,029.1,027.7,000.0,037.3,030.8,24.7,-000.0,0013.63,0006.51,0005.91
2023-09-13 11:45:00,SystemResetWarning,0831.2,4.99,000.00,029.1,027.8,000.0,037.3,030.8,24.6,-000.0,0013.26,0006.50,0005.92
2023-09-13 11:46:00,SystemResetWarning,0831.2,5.00,000.00,029.1,027.8,000.0,037.4,030.8,24.6,-000.1,0012.16,0006.51,0005.94
2023-09-13 11:47:00,SystemResetWarning,0831.2,5.00,000.00,029.1,027.8,000.0,037.4,030.8,24.5,-000.5,0012.12,0006.52,0005.96
2023-09-13 11:48:00,SystemResetWarning,0831.2,5.00,000.00,029.1,027.8,000.0,037.4,030.8,24.6,-000.6,0012.50,0006.57,0005.98
2023-09-13 11:49:00,SystemResetWarning,0831.2,5.00,000.00,029.1,027.8,000.0,037.4,030.8,24.6,-000.5,0012.44,0006.59,0006.00
2023-09-13 11:50:00,SystemResetWarning,0831.2,5.01,000.00,029.1,027.8,000.0,037.4,030.8,24.5,-000.0,0012.47,0006.61,0006.00
2023-09-13 11:51:00,SystemResetWarning,0831.2,5.02,000.00,029.2,027.8,000.0,037.4,030.8,24.5,0000.5,0012.72,0006.61,0006.02
2023-09-13 11:52:00,SystemResetWarning,0831.2,5.00,000.00,029.2,027.8,000.0,037.4,030.8,24.5,-000.0,0012.68,0006.63,0006.05
2023-09-13 11:53:00,SystemResetWarning,0831.2,4.99,000.00,029.2,027.8,000.0,037.4,030.8,24.5,0000.2,0012.28,0006.67,0006.06
2023-09-13 11:54:00,SystemResetWarning,0831.2,4.99,000.00,029.2,027.8,000.0,037.5,030.8,24.5,0000.3,0012.24,0006.70,0006.06
2023-09-13 11:55:00,SystemResetWarning,0831.2,5.00,000.00,029.2,027.8,000.0,037.5,030.8,24.5,0000.4,0012.46,0006.75,0006.05
2023-09-13 11:56:00,SystemResetWarning,0831.2,5.01,000.00,029.2,027.8,000.0,037.5,030.9,24.5,0000.6,0012.94,0006.76,0006.04
2023-09-13 11:57:00,SystemResetWarning,0831.2,5.00,000.00,029.2,027.8,000.0,037.5,030.9,24.5,0000.6,0013.05,0006.76,0006.02
2023-09-13 11:58:00,SystemResetWarning,0831.1,5.00,000.00,029.2,027.8,000.0,037.5,030.9,24.5,0000.9,0013.13,0006.78,0005.99
2023-09-13 11:59:00,SystemResetWarning,0831.1,5.00,000.00,029.2,027.9,000.0,037.5,030.9,24.4,0000.9,0012.86,0006.77,0005.97
